Washington County, Minnesota, United States
Lat: 45.02N, Lon: 92.88W
Wx Zone: MNZ063
Local Info
Past Weather Observations for Today

NOTE: This archive is for the closest National Weather Service station to Washington County. Information may differ from the station used for current weather conditions.

Click here for Long-term Archive

Time Weather Temperature Dewpoint Humidity Pressure Winds Precip Visibility
17:53
Clear
12°F / -11°C °F / -18°C 57% 30.15 in
(1021 mb)
NW 17.3 mph
(NW 28 kph)
- 10SM
16:53
Clear
16°F / -9°C °F / -18°C 48% 30.12 in
(1020 mb)
NNW 18.4 mph
(NNW 30 kph)
- 10SM
15:53
Clear
18°F / -8°C °F / -18°C 45% 30.12 in
(1020 mb)
NW 18.4 mph
(NW 30 kph)
- 10SM
14:53
Clear
16°F / -9°C °F / -18°C 48% 30.09 in
(1019 mb)
NNW 24.2 mph
(NNW 39 kph)
- 10SM
13:53
Clear
16°F / -9°C °F / -18°C 48% 30.09 in
(1019 mb)
NNW 23 mph
(NNW 37 kph)
- 10SM
12:53
Clear
16°F / -9°C °F / -18°C 48% 30.09 in
(1019 mb)
NW 19.6 mph
(NW 32 kph)
- 10SM
11:53
Clear
12°F / -11°C °F / -18°C 57% 30.12 in
(1020 mb)
NNW 20.7 mph
(NNW 33 kph)
- 10SM
10:53
Clear
10°F / -12°C °F / -18°C 61% 30.15 in
(1021 mb)
NNW 16.1 mph
(NNW 26 kph)
- 10SM
09:53
Clear
9°F / -13°C °F / -18°C 66% 30.12 in
(1020 mb)
NNW 17.3 mph
(NNW 28 kph)
- 10SM
08:53
Clear
7°F / -14°C -2°F / -19°C 66% 30.12 in
(1020 mb)
NNW 16.1 mph
(NNW 26 kph)
- 10SM
07:53
Clear
5°F / -15°C -2°F / -19°C 72% 30.12 in
(1020 mb)
NNW 15 mph
(NNW 24 kph)
- 10SM
06:53
Clear
7°F / -14°C -2°F / -19°C 66% 30.09 in
(1019 mb)
NNW 18.4 mph
(NNW 30 kph)
- 10SM
05:53
Mostly Cloudy
7°F / -14°C -2°F / -19°C 66% 30.09 in
(1019 mb)
NNW 19.6 mph
(NNW 32 kph)
- 10SM
04:53
Mostly Cloudy
7°F / -14°C °F / -18°C 72% 30.06 in
(1018 mb)
NNW 15 mph
(NNW 24 kph)
- 10SM
04:04
Partly Cloudy
9°F / -13°C °F / -18°C 66% 30.06 in
(1018 mb)
NNW 16.1 mph
(NNW 26 kph)
- 10SM
03:53
Mostly Cloudy
9°F / -13°C °F / -18°C 66% 30.06 in
(1018 mb)
NNW 18.4 mph
(NNW 30 kph)
- 10SM
03:17
Overcast
9°F / -13°C °F / -18°C 66% 30.04 in
(1017 mb)
N 19.6 mph
(N 32 kph)
- 10SM
02:53
Overcast
10°F / -12°C °F / -18°C 61% 30.04 in
(1017 mb)
NNW 20.7 mph
(NNW 33 kph)
0.00 in
(0.00 mm)
10SM
01:53
Overcast
10°F / -12°C 1°F / -17°C 67% 30.01 in
(1016 mb)
NNW 18.4 mph
(NNW 30 kph)
- 10SM
00:53
Overcast
12°F / -11°C 1°F / -17°C 62% 30.01 in
(1016 mb)
NNW 16.1 mph
(NNW 26 kph)
- 10SM
Time Weather Temperature Dewpoint Humidity Pressure Winds Precip Visibility


Weather for websites

WeatherForYou.com, LLC is not responsible for any damages or problems caused by this service. Current weather conditions are obtained from the closest station including government and personal stations which may have varying degrees of accuracy. Weather forecasts are derived from the NOAA NDFD. Like all things, this site belongs to Jesus Christ... He just trusts us to maintain it. If you have any questions or comments email webmaster@weatherforyou.com

Copyright © 2016, WeatherForYou.com LLC. All rights reserved.